#timestamp,LO_Frequency,Hit,StdDev 
1502978415.7,286047000.3,P,0.2
1502978435.6,286047000.1,N,0.2
1502978455.4,286047000.4,N,0.2
1502978475.2,286047000.0,N,0.2
1502978495.1,286047000.1,N,0.2
1502978496.0,286047000.1,N,0.2
1502978515.8,286047001.9,Y,0.0
1502978535.7,286047002.4,P,1.1
1502978555.5,286047001.9,N,0.9
1502978575.3,286047002.6,N,0.9
1502978595.2,286047001.5,N,0.8
1502978615.9,286047001.4,N,0.8
1502978635.7,286047003.9,Y,0.0
1502978655.6,286047002.4,P,0.4
1502978675.4,286046999.7,N,1.1
1502978695.2,286047000.1,N,1.1
1502978715.1,286046999.7,N,1.1
1502978716.0,286046999.7,N,1.1
1502978735.8,286047002.5,N,1.2
1502978755.6,286047002.1,N,1.2
1502978775.5,286047001.9,N,1.2
1502978795.3,286047002.7,N,1.2
1502978815.1,286047002.3,N,1.2
1502978835.9,286047002.6,N,1.2
1502978855.7,286047002.6,N,1.2
1502978875.5,286047002.1,N,1.2
1502978895.4,286047001.5,N,1.1
1502978915.2,286047001.7,N,1.1
1502978935.0,286047001.7,N,1.1
1502978935.9,286047001.7,N,1.0
1502978955.8,286047001.5,N,1.0
1502978975.6,286047002.2,N,1.0
1502978995.4,286047001.5,N,1.0
1502979015.3,286047001.9,N,0.9
1502979035.1,286047001.5,N,0.9
1502979055.8,286047004.3,Y,0.0
1502979075.7,286046999.7,P,1.0
1502979095.5,286047002.2,N,1.1
1502979115.3,286047002.4,N,1.1
1502979135.2,286047002.4,N,1.0
1502979155.0,286047002.8,N,1.0
1502979155.9,286047002.8,N,1.0
1502979175.7,286046999.7,N,1.2
1502979195.6,286047000.0,N,1.3
1502979215.4,286046999.8,N,1.3
1502979235.2,286047000.1,N,1.3
1502979255.1,286047000.2,N,1.3
1502979256.0,286047000.2,N,1.2
1502979275.8,286047002.2,N,1.2
1502979295.6,286047002.0,N,1.2
1502979315.5,286047002.8,N,1.2
1502979335.3,286047002.3,N,1.2
1502979355.1,286046999.7,N,1.2
1502979375.9,286047002.4,N,1.2
1502979395.7,286046999.8,N,1.3
1502979415.5,286047002.4,N,1.2
1502979435.4,286047002.3,N,1.2
1502979455.2,286047002.0,N,1.2
1502979475.0,286047002.2,N,1.2
1502979476.0,286047002.2,N,1.2
1502979495.8,286047002.5,N,1.2
1502979515.6,286047001.9,N,1.2
1502979535.5,286047002.2,N,1.1
1502979555.3,286047002.7,N,1.1
1502979575.1,286047002.2,N,1.1
1502979595.9,286046999.7,N,1.2
1502979615.7,286047001.9,N,1.1
1502979635.5,286047002.5,N,1.1
1502979655.4,286047002.0,N,1.1
1502979675.2,286047002.1,N,1.1
1502979695.0,286047002.2,N,1.1
1502979695.9,286047002.2,N,1.1
1502979715.8,286047001.6,N,1.0
1502979735.6,286047001.8,N,1.0
1502979755.4,286047001.6,N,0.9
1502979775.3,286047001.9,N,0.9
1502979795.1,286047001.3,N,0.8
1502979815.8,286047002.4,N,0.8
1502979835.7,286047001.7,N,0.8
1502979855.5,286047002.1,N,0.8
1502979875.3,286047002.7,Y,0.0
1502979895.2,286047000.8,P,0.5
1502979915.0,286047000.9,N,0.5
1502979915.9,286047000.9,N,0.4
1502979935.7,286047000.5,N,0.5
1502979955.6,286047000.5,N,0.5
1502979975.4,286047000.5,N,0.5
1502979995.3,286047000.3,N,0.5
1502980015.1,286047000.5,N,0.4
1502980016.0,286047000.5,N,0.4
1502980035.8,286047001.1,N,0.4
1502980055.7,286047000.4,N,0.4
1502980075.5,286047000.0,N,0.4
1502980095.3,286047000.2,N,0.4
1502980115.2,286046999.9,N,0.5
1502980135.9,286047000.1,N,0.5
1502980155.7,286047000.2,N,0.5
1502980175.6,286047000.0,N,0.5
1502980195.4,286046999.8,N,0.5
1502980215.2,286047000.2,N,0.5
1502980235.1,286047000.1,N,0.5
1502980236.0,286047000.1,N,0.5
1502980255.8,286047000.2,N,0.5
1502980275.6,286047000.1,N,0.5
1502980295.5,286046999.8,N,0.5
1502980315.3,286047000.3,N,0.4
1502980335.1,286046999.9,N,0.4
1502980355.9,286046999.9,N,0.4
1502980375.7,286047000.0,N,0.4
1502980395.5,286047000.0,N,0.4
1502980415.4,286047000.8,N,0.3
1502980435.2,286047000.6,N,0.3
1502980455.0,286047001.0,N,0.3
1502980455.9,286047001.0,N,0.4
1502980475.8,286047001.0,N,0.4
1502980495.6,286046999.8,N,0.4
1502980515.5,286047000.0,N,0.4
1502980535.3,286046999.7,N,0.4
1502980555.1,286047002.8,Y,0.0
1502980575.9,286047000.6,P,0.2
1502980595.7,286047000.2,N,0.2
1502980615.5,286046999.9,N,0.2
1502980635.4,286046999.8,N,0.3
1502980655.2,286046999.9,N,0.3
1502980675.0,286047000.1,N,0.3
1502980675.9,286047000.1,N,0.2
1502980695.8,286047000.2,N,0.2
1502980715.6,286047000.3,N,0.2
1502980735.4,286047000.3,N,0.2
1502980755.3,286047000.3,N,0.2
1502980775.1,286046999.9,N,0.2
1502980776.0,286046999.9,N,0.2
1502980795.8,286046999.7,N,0.2
1502980815.7,286047002.7,Y,0.0
1502980835.5,286047000.6,P,0.3
1502980855.3,286047000.0,N,0.3
1502980875.2,286046999.8,N,0.3
1502980895.9,286046999.8,N,0.3
1502980915.7,286046999.9,N,0.3
1502980935.6,286047002.7,Y,0.0
1502980955.4,286046999.7,P,0.2
1502980975.2,286047000.1,N,0.2
1502980995.1,286047000.4,N,0.2
1502980996.0,286047000.4,N,0.3
1502981015.8,286047000.1,N,0.2
1502981035.6,286047000.3,N,0.2
1502981055.5,286047002.7,Y,0.0
1502981075.3,286047002.1,P,1.0
1502981095.1,286047000.2,N,0.9
1502981115.9,286047000.4,N,0.8
1502981135.7,286047000.0,N,0.8
1502981155.5,286046999.9,N,0.8
1502981175.4,286047001.0,N,0.7
1502981195.2,286047000.5,N,0.7
1502981215.0,286046999.8,N,0.7
1502981216.0,286046999.8,N,0.7
1502981235.8,286047000.9,N,0.7
1502981255.6,286046999.8,N,0.7
1502981275.5,286047002.7,Y,0.0
1502981295.3,286047004.4,P,2.0
1502981315.1,286047000.2,N,1.9
1502981335.9,286046999.9,N,1.8
1502981355.7,286047000.7,N,1.7
1502981375.5,286047000.6,N,1.5
1502981395.4,286047001.0,N,1.4
1502981415.2,286047001.2,N,1.3
1502981435.0,286047001.2,N,1.3
1502981435.9,286047001.2,N,1.2
1502981455.8,286046998.8,N,1.3
1502981475.6,286046999.2,N,1.3
1502981495.4,286046999.4,N,1.3
1502981515.3,286046996.9,N,1.6
1502981535.1,286046997.0,N,1.8
1502981536.0,286046997.0,N,1.9
1502981555.8,286046994.9,N,2.2
1502981575.7,286046995.9,N,2.3
1502981595.5,286046995.7,N,2.4
1502981615.3,286046995.3,N,2.5
1502981635.2,286046996.4,N,2.5
1502981655.9,286046996.0,N,2.5
1502981675.7,286046994.5,N,2.6
1502981695.6,286046994.6,N,2.7
1502981715.4,286046994.5,N,2.7
1502981735.2,286046993.4,N,2.8
1502981755.1,286046993.8,N,2.9
1502981756.0,286046993.8,N,2.9
1502981775.8,286046994.4,N,2.9
1502981795.6,286046991.7,N,3.1
1502981815.5,286046994.5,N,3.1
1502981835.3,286046994.4,N,2.8
1502981855.1,286046991.7,N,2.9
1502981875.9,286046992.6,N,2.9
1502981895.7,286046993.0,N,2.9
1502981915.5,286046990.5,Y,0.0
1502981935.4,286046993.4,P,1.4
1502981955.2,286046996.4,N,1.4
1502981975.0,286046995.9,P,1.2
1502981975.9,286046995.9,Y,0.0
1502981995.8,286046998.9,P,1.7
